| time (UTC) | temp C | wind direction | speed KPH | gust KPH | rain 1hr cm | rain 24hr cm | rain mn cm | humidity % | barometer mb |
| 20260507153042 | 15 | 350 | 9.7 | 30.6 | 0.00 | 0.84 | 0.03 | 48 | 1007.0 |
| 20260507151540 | 15 | 221 | 11.3 | 30.6 | 0.00 | 0.84 | 0.03 | 52 | 1007.1 |
| 20260507150044 | 14 | 226 | 8.0 | 17.7 | 0.00 | 0.84 | 0.03 | 61 | 1007.2 |
| 20260507144541 | 12 | 0 | 1.6 | 9.7 | 0.00 | 0.84 | 0.03 | 68 | 1007.2 |
| 20260507143045 | 12 | 306 | 4.8 | 20.9 | 0.00 | 0.84 | 0.03 | 68 | 1007.3 |
| 20260507141540 | 12 | 244 | 4.8 | 14.5 | 0.00 | 0.84 | 0.03 | 67 | 1007.2 |
| 20260507140044 | 12 | 267 | 3.2 | 12.9 | 0.00 | 0.84 | 0.03 | 70 | 1007.1 |
| 20260507134545 | 12 | 229 | 3.2 | 9.7 | 0.00 | 0.84 | 0.03 | 70 | 1007.3 |
| 20260507133048 | 12 | 221 | 4.8 | 16.1 | 0.00 | 0.84 | 0.03 | 70 | 1007.5 |
| 20260507131541 | 12 | 313 | 4.8 | 14.5 | 0.00 | 0.84 | 0.03 | 71 | 1007.6 |
| 20260507130043 | 12 | 304 | 6.4 | 19.3 | 0.03 | 0.84 | 0.03 | 73 | 1007.7 |
| 20260507124546 | 11 | 229 | 4.8 | 17.7 | 0.03 | 0.84 | 0.03 | 77 | 1007.6 |
| 20260507123042 | 11 | 237 | 6.4 | 16.1 | 0.03 | 0.84 | 0.03 | 78 | 1007.5 |
| 20260507121542 | 10 | 230 | 3.2 | 12.9 | 0.03 | 0.84 | 0.03 | 83 | 1007.6 |
| 20260507120041 | 9 | 343 | 3.2 | 14.5 | 0.00 | 0.81 | 0.00 | 86 | 1007.8 |
| 20260507114559 | 8 | 315 | 1.6 | 8.0 | 0.00 | 0.81 | 0.00 | 90 | 1007.7 |
| 20260507113101 | 8 | 5 | 1.6 | 11.3 | 0.00 | 0.81 | 0.00 | 92 | 1007.6 |
| 20260507111549 | 7 | 313 | 0.0 | 6.4 | 0.00 | 0.81 | 0.00 | 93 | 1007.6 |
| 20260507110047 | 7 | 249 | 1.6 | 8.0 | 0.00 | 0.81 | 0.00 | 93 | 1007.6 |
| 20260507104543 | 6 | 0 | 0.0 | 0.0 | 0.00 | 0.81 | 0.00 | 93 | 1007.1 |
| 20260507103049 | 7 | 0 | 0.0 | 3.2 | 0.00 | 0.81 | 0.00 | 92 | 1007.2 |
| 20260507101537 | 7 | 0 | 0.0 | 4.8 | 0.00 | 0.81 | 0.00 | 92 | 1007.3 |
| 20260507100045 | 7 | 0 | 0.0 | 3.2 | 0.00 | 0.81 | 0.00 | 92 | 1007.4 |
| 20260507094543 | 7 | 0 | 0.0 | 4.8 | 0.00 | 0.81 | 0.00 | 92 | 1007.1 |
| 20260507093041 | 7 | 0 | 0.0 | 6.4 | 0.00 | 0.81 | 0.00 | 91 | 1007.4 |
| 20260507091543 | 7 | 236 | 0.0 | 4.8 | 0.00 | 0.81 | 0.00 | 92 | 1007.5 |
| 20260507090041 | 7 | 236 | 3.2 | 12.9 | 0.00 | 0.81 | 0.00 | 92 | 1007.9 |
| 20260507084548 | 7 | 0 | 0.0 | 4.8 | 0.00 | 0.81 | 0.00 | 92 | 1007.0 |
| 20260507083045 | 8 | 0 | 0.0 | 4.8 | 0.00 | 0.81 | 0.00 | 92 | 1006.8 |
| 20260507081547 | 8 | 345 | 1.6 | 4.8 | 0.00 | 0.81 | 0.00 | 92 | 1007.0 |
| 20260507080044 | 8 | 0 | 0.0 | 4.8 | 0.00 | 0.81 | 0.00 | 92 | 1006.7 |
| 20260507074545 | 8 | 329 | 0.0 | 4.8 | 0.00 | 0.81 | 0.00 | 93 | 1007.0 |
| 20260507073046 | 8 | 0 | 1.6 | 4.8 | 0.00 | 0.81 | 0.00 | 92 | 1006.5 |
| 20260507071543 | 8 | 0 | 0.0 | 0.0 | 0.00 | 0.81 | 0.00 | 92 | 1006.6 |
| 20260507070045 | 8 | 0 | 0.0 | 3.2 | 0.00 | 0.81 | 0.00 | 92 | 1006.1 |
| 20260507064541 | 8 | 0 | 0.0 | 4.8 | 0.00 | 0.81 | 0.00 | 92 | 1006.4 |
| 20260507063043 | 8 | 233 | 3.2 | 11.3 | 0.00 | 0.81 | 0.00 | 92 | 1006.6 |
| 20260507061544 | 8 | 232 | 3.2 | 12.9 | 0.00 | 0.81 | 0.00 | 92 | 1006.7 |
| 20260507060044 | 8 | 277 | 3.2 | 8.0 | 0.00 | 0.81 | 0.00 | 93 | 1006.1 |
| 20260507054541 | 8 | 0 | 3.2 | 9.7 | 0.00 | 0.81 | 0.00 | 93 | 1006.5 |
| 20260507053041 | 8 | 0 | 1.6 | 11.3 | 0.00 | 0.81 | 0.00 | 93 | 1006.5 |
| 20260507051541 | 9 | 240 | 3.2 | 12.9 | 0.00 | 0.81 | 0.00 | 93 | 1006.4 |
| 20260507050047 | 9 | 293 | 0.0 | 6.4 | 0.00 | 0.81 | 0.00 | 93 | 1006.2 |
| 20260507044554 | 9 | 348 | 0.0 | 6.4 | 0.00 | 0.81 | 0.00 | 94 | 1006.2 |
| 20260507043055 | 10 | 0 | 0.0 | 16.1 | 0.00 | 0.81 | 0.00 | 94 | 1006.1 |
| 20260507041540 | 10 | 234 | 3.2 | 12.9 | 0.00 | 0.81 | 0.00 | 94 | 1006.6 |
| 20260507040041 | 10 | 0 | 1.6 | 8.0 | 0.00 | 0.81 | 0.00 | 94 | 1006.4 |
| 20260507034545 | 10 | 0 | 0.0 | 3.2 | 0.10 | 0.81 | 0.81 | 94 | 1006.2 |
| 20260507033043 | 10 | 0 | 0.0 | 1.6 | 0.10 | 0.81 | 0.81 | 94 | 1006.1 |
| 20260507031546 | 11 | 325 | 0.0 | 12.9 | 0.10 | 0.81 | 0.81 | 93 | 1006.2 |
| 20260507030042 | 11 | 0 | 0.0 | 12.9 | 0.08 | 0.79 | 0.79 | 93 | 1006.4 |
| 20260507024542 | 11 | 240 | 4.8 | 12.9 | 0.03 | 0.71 | 0.71 | 93 | 1006.2 |
| 20260507023043 | 12 | 244 | 3.2 | 20.9 | 0.10 | 0.71 | 0.71 | 93 | 1006.2 |
| 20260507021543 | 12 | 213 | 3.2 | 9.7 | 0.20 | 0.71 | 0.71 | 93 | 1005.6 |
| 20260507020050 | 13 | 258 | 3.2 | 12.9 | 0.36 | 0.71 | 0.71 | 94 | 1005.4 |
| 20260507014541 | 13 | 314 | 1.6 | 6.4 | 0.33 | 0.71 | 0.69 | 93 | 1004.9 |
| 20260507013040 | 13 | 0 | 0.0 | 16.1 | 0.23 | 0.61 | 0.58 | 93 | 1004.9 |
| 20260507011546 | 15 | 201 | 3.2 | 17.7 | 0.15 | 0.53 | 0.51 | 93 | 1004.8 |
| 20260507010046 | 15 | 0 | 0.0 | 3.2 | 0.00 | 0.38 | 0.36 | 94 | 1004.4 |
| 20260507004544 | 15 | 0 | 0.0 | 1.6 | 0.00 | 0.38 | 0.36 | 94 | 1004.3 |
| 20260507003040 | 15 | 0 | 0.0 | 0.0 | 0.00 | 0.38 | 0.36 | 94 | 1004.1 |
| 20260507001606 | 15 | 0 | 0.0 | 6.4 | 0.00 | 0.38 | 0.36 | 94 | 1004.2 |
| 20260507000043 | 15 | 0 | 0.0 | 0.0 | 0.00 | 0.38 | 0.36 | 94 | 1004.0 |
| 20260506234551 | 16 | 0 | 0.0 | 1.6 | 0.00 | 0.43 | 0.36 | 94 | 1003.8 |
| 20260506233043 | 16 | 0 | 0.0 | 8.0 | 0.00 | 0.43 | 0.36 | 94 | 1003.6 |
| 20260506231543 | 16 | 0 | 0.0 | 6.4 | 0.00 | 0.43 | 0.36 | 94 | 1003.8 |
| 20260506230053 | 16 | 0 | 0.0 | 8.0 | 0.00 | 0.43 | 0.36 | 94 | 1003.9 |
| 20260506224540 | 16 | 0 | 0.0 | 8.0 | 0.00 | 0.43 | 0.36 | 94 | 1003.8 |
| 20260506223041 | 16 | 0 | 0.0 | 6.4 | 0.00 | 0.43 | 0.36 | 94 | 1003.9 |
| 20260506221602 | 16 | 0 | 0.0 | 0.0 | 0.00 | 0.43 | 0.36 | 94 | 1004.0 |
| 20260506220043 | 16 | 0 | 0.0 | 8.0 | 0.00 | 0.43 | 0.36 | 94 | 1004.0 |
| 20260506214541 | 16 | 0 | 0.0 | 6.4 | 0.00 | 0.43 | 0.36 | 94 | 1004.0 |
| 20260506213040 | 16 | 0 | 1.6 | 8.0 | 0.00 | 0.43 | 0.36 | 94 | 1004.2 |
| 20260506211540 | 17 | 231 | 0.0 | 4.8 | 0.03 | 0.43 | 0.36 | 95 | 1004.3 |
| 20260506210051 | 17 | 175 | 0.0 | 4.8 | 0.08 | 0.43 | 0.36 | 94 | 1004.3 |
| 20260506204547 | 17 | 0 | 0.0 | 3.2 | 0.13 | 0.43 | 0.36 | 95 | 1004.5 |
| 20260506203043 | 17 | 0 | 1.6 | 8.0 | 0.15 | 0.43 | 0.36 | 94 | 1004.5 |
| 20260506201541 | 17 | 0 | 0.0 | 0.0 | 0.13 | 0.41 | 0.33 | 94 | 1004.5 |
| 20260506200040 | 17 | 0 | 0.0 | 3.2 | 0.10 | 0.36 | 0.28 | 94 | 1004.8 |
| 20260506194536 | 17 | 0 | 0.0 | 0.0 | 0.05 | 0.30 | 0.23 | 94 | 1004.9 |
| 20260506193048 | 17 | 0 | 0.0 | 0.0 | 0.05 | 0.28 | 0.20 | 94 | 1005.1 |
| 20260506191542 | 17 | 0 | 0.0 | 0.0 | 0.08 | 0.28 | 0.20 | 94 | 1005.0 |
| 20260506190040 | 17 | 0 | 0.0 | 0.0 | 0.08 | 0.25 | 0.18 | 93 | 1005.0 |
| 20260506184543 | 17 | 0 | 0.0 | 0.0 | 0.10 | 0.25 | 0.18 | 93 | 1005.5 |
| 20260506183045 | 17 | 0 | 0.0 | 0.0 | 0.13 | 0.23 | 0.15 | 92 | 1005.8 |
| 20260506181549 | 17 | 0 | 0.0 | 0.0 | 0.13 | 0.20 | 0.13 | 91 | 1005.9 |
| 20260506180040 | 17 | 0 | 0.0 | 0.0 | 0.10 | 0.18 | 0.10 | 90 | 1006.3 |
| 20260506174541 | 17 | 0 | 0.0 | 3.2 | 0.08 | 0.15 | 0.08 | 87 | 1006.4 |
| 20260506173041 | 18 | 0 | 0.0 | 9.7 | 0.03 | 0.10 | 0.03 | 83 | 1006.4 |
| 20260506171545 | 19 | 0 | 1.6 | 4.8 | 0.00 | 0.08 | 0.00 | 78 | 1006.2 |
| 20260506170052 | 20 | 225 | 3.2 | 12.9 | 0.00 | 0.08 | 0.00 | 70 | 1005.9 |
| 20260506164554 | 21 | 256 | 4.8 | 25.7 | 0.00 | 0.08 | 0.00 | 67 | 1005.9 |
| 20260506163045 | 21 | 227 | 3.2 | 11.3 | 0.00 | 0.08 | 0.00 | 67 | 1006.1 |
| 20260506161546 | 21 | 198 | 3.2 | 11.3 | 0.00 | 0.08 | 0.00 | 68 | 1006.4 |
| 20260506160055 | 20 | 0 | 0.0 | 6.4 | 0.00 | 0.08 | 0.00 | 70 | 1006.6 |
| 20260506154544 | 20 | 252 | 4.8 | 16.1 | 0.00 | 0.08 | 0.00 | 70 | 1006.9 |